Location: Unspecified
(52.1384°N, 8.6525°W)
Time: 07:07:45
(UTC+00:00)

ISS - Visible Passes

Search period start: 20 October 2020 00:00
Search period end: 30 October 2020 00:00
Orbit: 418 x 419 km, 51.6° (Epoch: 20 October)

Date Brightness Start Highest point End Pass type
(mag) Time Alt. Az. Time Alt. Az. Time Alt. Az.
23 Oct -1.2 06:26:36 10° SSW 06:29:10 20° SE 06:31:44 10° E visible
24 Oct -0.9 05:39:43 10° S 05:41:38 14° SE 05:43:33 10° ESE visible
25 Oct -2.4 06:27:03 10° SW 06:30:11 37° SSE 06:33:20 10° E visible
26 Oct -2.0 05:40:10 13° SSW 05:42:34 28° SSE 05:45:29 10° E visible
27 Oct -1.6 04:54:43 20° SSE 04:54:58 20° SE 04:57:32 10° E visible
27 Oct -3.3 06:28:01 10° WSW 06:31:21 61° SSE 06:34:41 10° E visible
28 Oct -0.4 04:09:09 11° ESE 04:09:09 11° ESE 04:09:19 10° ESE visible
28 Oct -3.1 05:42:07 26° SW 05:43:39 48° SSE 05:46:56 10° E visible
29 Oct -2.4 04:56:29 34° SE 04:56:29 34° SE 04:59:07 10° E visible
29 Oct -3.7 06:29:26 11° W 06:32:36 81° S 06:35:58 10° E visible
